STARLINK-30514, 58028

Orbit data source: Space-Track

STARLINK-30514, 58028 is a payload satellite owned by SpaceX/Seattle (US) in LEO that was launched on Mon, 09 Oct 2023 UTC via an FALCON 9 launch vehicle from the Air Force Western Test Range (AFWTR). Payload-class satellites include a variety of spacecraft equipped with specific instruments for various scientific and technological missions. These include communications satellites like Starlink; space stations such as the ISS; scientific satellites like the Hubble; Earth observation satellites from companies like Planet Labs, Umbra, and HawkEye 360; GPS; miniature CubeSats for education and research; and military/defense satellites.

Loading next visibility...
Identifier
58028, 2023-156A
Orbit
LEO
Country
Flag of USUS
Related business
Manufacturer
SpaceX/Seattle
Mission
Operational spacecraft
Bus & Motor
STARLINK V2M, Unknown motor
Mass
730 kg wet, ~700 kg dry
Launch date (UTC)
2023-10-09 (2 years ago)
Launch vehicle
FALCON 9
Launch site
Air Force Western Test Range (AFWTR)
Object type
Payload
Rocket body
Debris
Shape & HBR
Unknown shape, 17.7 m
Radar Cross Section
Large (>1 m²)

Expand to show TLE details & history
Last TLE update: 12 hours ago

TLE from 12 hours ago
0 STARLINK-30514
1 58028U 23156A   25346.78686293  .00014537  00000-0  50196-3 0  9993
2 58028  53.1588 121.8273 0001746  75.7136 284.4058 15.30201967123018
Epoch: 2025-12-12T18:53Z
TLE epoch observation values (Epoch: 2025-12-12T18:53:04.957Z)
Latitude
-0.00005°
Longitude
116.83313°
Altitude
475.811 km
Speed
7.629 km/s
True Right ascension
08h 07m 18s
True Declination
0° 00' 00"
Sunlit
Object was in full shadow at epoch
Visualization orbit readout
Latitude
Unknown
Longitude
Unknown
Altitude
Unknown
Speed
Unknown
Apparent Right ascension
Unknown
Apparent Declination
Unknown
Sunlit
N/A
Visualization observer readout
Local Sidereal Time
05:23:54
Azimuth
Unknown
Elevation
Unknown
Doppler factor
Unknown
Orbital elements
Apogee altitude
476.662 km
Perigee altitude
474.269 km
Semi-major axis
6,853.603 km
Eccentricity
0.00017
Inclination
53.1588°
RAAN
121.8273°
Arg. of periapsis
75.7136°
True anomaly
284.38642°
Mean anomaly
284.4058°
Eccentric anomaly
284.39611°
Mean motion
3.82529 °/min
Orbital period
94.11 mins
BSTAR
0.00050196
Loading maneuver chart data...
Computing Atmospheric mass density...
Loading historical data...
Loading historical data...
Loading historical data...
Loading historical data...
Loading historical data...
Loading historical data...
Loading historical data...

Documentation

Showing up to 5 results
|